Regional Weather Roundup
Issued by NWS

Home | Current Version | Previous Version | Text Only | Print | Product List | Glossary On
Versions: 1 2 3 4 5 6 7 8 9 10 11 12 13 14 15 16 17 18 19 20 21 22 23 24 25 26 27 28 29 30 31 32 33 34 35 36 37 38 39 40 41 42 43 44 45 46 47 48 49 50
000
ASUS44 KOUN 060000
RWROK

WEATHER ROUNDUP FOR OKLAHOMA
NATIONAL WEATHER SERVICE NORMAN OK
700 PM CDT SUN JUL 05 2015

NOTE: "FAIR" INDICATES FEW OR NO CLOUDS BELOW 12,000 FEET WITH NO
      SIGNIFICANT WEATHER AND/OR OBSTRUCTIONS TO VISIBILITY.

OKZ001>007-009>012-014-015-017-060100-
NORTHWEST OKLAHOMA AND THE PANHANDLE

CITY           SKY/WX    TMP DP  RH WIND       PRES   REMARKS
GAGE           PTSUNNY   92  64  39 S22       29.87F HX  93
6HR MIN TEMP:  91; 6HR MAX TEMP:  95;

GUYMON         PTSUNNY   91  57  31 S14G24    29.85F
ENID/WOODRING  MOSUNNY   97  68  38 S15G23    29.84F HX 101
$$

OKZ016-021>023-033>039-044-045-060100-
SOUTHWEST OKLAHOMA

CITY           SKY/WX    TMP DP  RH WIND       PRES   REMARKS
LAWTON/REGL    SUNNY     93  65  39 S17       29.87S HX  95
6HR MIN TEMP:  90; 6HR MAX TEMP:  95;

FREDERICK      SUNNY     94  66  39 S18       29.84F HX  97
CLINTON        MOSUNNY   92  66  42 S21       29.90S HX  94
HOBART         MOSUNNY   92  65  40 S15G25    29.88S HX  94
$$

OKZ018>020-024>031-060100-
CENTRAL OKLAHOMA

CITY           SKY/WX    TMP DP  RH WIND       PRES   REMARKS
OKLAHOMA CITY  MOSUNNY   88  71  57 S16G22    29.89F HX  94
6HR MIN TEMP:  88; 6HR MAX TEMP:  92;

OKC/WILEY POST SUNNY     89  71  55 S20       29.89F HX  95
STILLWATER     SUNNY     91  71  51 S16       29.87F HX  97
GUTHRIE        SUNNY     90  72  55 S13       29.87F HX  97
$$

OKZ008-013-054>072-060100-
NORTHEAST OKLAHOMA

CITY           SKY/WX    TMP DP  RH WIND       PRES   REMARKS
TULSA          MOSUNNY   91  73  55 S16G23    29.88F HX  99
6HR MIN TEMP:  90; 6HR MAX TEMP:  95;

TULSA/JONES    MOSUNNY   92  72  51 S13       29.89S HX  99
PONCA CITY     SUNNY     93  70  46 S12G18    29.85F HX  99
BARTLESVILLE   SUNNY     91  73  55 S10       29.88F HX  99
MUSKOGEE       MOSUNNY   89  74  60 S12       29.93S HX  98
$$

OKZ032-040>043-046>053-073>077-060100-
SOUTH CENTRAL/SOUTHEAST OKLAHOMA

CITY           SKY/WX    TMP DP  RH WIND       PRES   REMARKS
MCALESTER      SUNNY     88  72  58 S7        29.94S HX  94
$$




USA.gov is the U.S. government's official web portal to all federal, state and local government web resources and services.